This is the latest recevied weather packets stored in our database for station/object AD0YN. If no packets are shown the sender has not sent any weather packets the latest 10 day(s).
| Time | Temp. | Humidity | Pressure | Rain* | Wind** | Luminosity | Snow |
|---|---|---|---|---|---|---|---|
| 1778101074 | 15.56° C | 30% | 1017.2 hPa | 0 mm | - | 691 W/m² | - |
| 1778100770 | 15.56° C | 31% | 1017.3 hPa | 0 mm | - | 703 W/m² | - |
| 1778100467 | 15.56° C | 29% | 1017.1 hPa | 0 mm | - | 733 W/m² | - |
| 1778100164 | 15.56° C | 32% | 1017.2 hPa | 0 mm | - | 704 W/m² | - |
| 1778099862 | 15.56° C | 30% | 1017.4 hPa | 0 mm | - | 777 W/m² | - |
| 1778099559 | 15.56° C | 30% | 1017.3 hPa | 0 mm | - | 776 W/m² | - |
| 1778099256 | 15.56° C | 31% | 1017.5 hPa | 0 mm | - | 785 W/m² | - |
| 1778098953 | 15.56° C | 32% | 1017.4 hPa | 0 mm | - | 801 W/m² | - |
| 1778098650 | 15.56° C | 29% | 1017.5 hPa | 0 mm | - | 812 W/m² | - |
| 1778098346 | 16.11° C | 30% | 1017.4 hPa | 0 mm | - | 812 W/m² | - |
| 1778098043 | 15.56° C | 30% | 1017.6 hPa | 0 mm | - | 808 W/m² | - |
| 1778097740 | 16.11° C | 30% | 1017.3 hPa | 0 mm | - | 819 W/m² | - |
| 1778097436 | 16.11° C | 31% | 1017.6 hPa | 0 mm | - | 846 W/m² | - |
| 1778097133 | 15.56° C | 34% | 1017.8 hPa | 0 mm | - | 860 W/m² | - |
| 1778096825 | 15.56° C | 32% | 1017.6 hPa | 0 mm | - | 860 W/m² | - |
| 1778096521 | 15° C | 35% | 1017.8 hPa | 0 mm | - | 862 W/m² | - |
| 1778096219 | 15.56° C | 31% | 1017.8 hPa | 0 mm | - | 825 W/m² | - |
| 1778095915 | 15.56° C | 34% | 1017.6 hPa | 0 mm | - | 447 W/m² | - |
| 1778095612 | 15° C | 31% | 1017.7 hPa | 0 mm | - | 907 W/m² | - |
| 1778095308 | 15° C | 32% | 1017.5 hPa | 0 mm | - | 648 W/m² | - |
| 1778095006 | 15° C | 35% | 1017.9 hPa | 0 mm | - | 758 W/m² | - |
| 1778094701 | 15° C | 32% | 1017.7 hPa | 0 mm | - | 455 W/m² | - |
| 1778094399 | 15° C | 31% | 1017.9 hPa | 0 mm | - | 996 W/m² | - |
| 1778094095 | 15° C | 33% | 1018 hPa | 0 mm | - | 1020 W/m² | - |
| 1778093793 | 13.89° C | 34% | 1018.1 hPa | 0 mm | - | 486 W/m² | - |
* Rain latest hour (hover to see other rain measurements)
** Current wind speed in m/s (hover to see current wind gust speed)